Details for Flybe at EGTE




Go Back


Latest METAR
Local Time

EGTE 220920Z VRB03KT 9999 7000SW -RA FEW021 SCT045 10/08 Q1019
22/09/2018, 10:48:59

Description
Results
Flybe Logo
Number of Pilots based at EGTE
0 Pilots Based here
Number of Flybe Flights Departed from EGTE
17 Flights Departed
Number of Flybe Flights Arrived at EGTE
16 Flights Arrived
Number of Flybe Schedules Departing from EGTE
38 Schedules
Number of Flybe Schedules Arriving at EGTE
39 Schedules
Number of Flybe Schedules Departing from EGTE availible today
17 Schedules Today
Number of Flybe Schedules Arriving at EGTE availible today
17 Schedules Today
Average Landing Rate at EGTE
-220 fpm
Flybe Average Landing Rate at EGTE
-205 fpm
Total Fuel Purchased at EGTE by Flybe
16,490.37 kgs / 36,354.67 lbs

Pilots Based at EGTE


Pilot ID
Pilot Name
Pilot Rank
No. of Flights
No. of Flying Hours
There are no pilots assigned to this hub!   Will you be the first?
Content